Regional Weather Roundup
Issued by NWS Upton, NY

Current Version | Previous Version | Text Only | Print | Product List | Glossary On
Versions: 1 2 3 4 5 6 7 8 9 10 11 12 13 14 15 16 17 18 19 20 21 22 23 24 25 26 27 28 29 30 31 32 33 34 35 36 37 38 39 40 41 42 43 44 45 46 47 48 49 50
000 ASUS41 KOKX 301005 RWROKX REGIONAL WEATHER ROUNDUP NATIONAL WEATHER SERVICE NEW YORK NY 600 AM EDT TUE SEP 30 2014 NOTE: "FAIR" INDICATES FEW OR NO CLOUDS BELOW 12,000 FEET WITH NO SIGNIFICANT WEATHER AND/OR OBSTRUCTIONS TO VISIBILITY. NYZ071-072-176-178-NJZ106-104-301100- NEW YORK CITY METRO AREA CITY SKY/WX TMP DP RH WIND PRES REMARKS CENTRAL PARK CLOUDY 68 55 63 CALM 29.96R LAGUARDIA APRT CLOUDY 68 64 87 NE7 29.92R KENNEDY INTL CLOUDY 66 62 87 SW3 29.94R NEWARK/LIBERTY CLOUDY 67 61 81 CALM 29.93R BRNX BOT. GARD N/A 66 63 88 NE2 29.96R TETERBORO CLOUDY 66 59 78 CALM 29.92R $$ NYZ177-179-078>081-301100- LONG ISLAND NEW YORK CITY SKY/WX TMP DP RH WIND PRES REMARKS FARMINGDALE CLOUDY 67 63 87 CALM 29.93S ISLIP CLOUDY 66 64 93 E8 29.92S FOG SHIRLEY CLOUDY 65 64 97 MISG 29.95R FOG WESTHAMPTON LGT RAIN 65 63 93 E6 29.96S FOG MONTAUK POINT N/A 62 60 93 NE8 29.98R $$ NYZ052-065-067-301100- HUDSON VALLEY CITY SKY/WX TMP DP RH WIND PRES REMARKS WHITE PLAINS FOG 65 63 93 E6 29.94R VSB 1 NEWBURGH MOCLDY 63 61 94 SE7 29.95R MONTGOMERY FOG 54 53 97 CALM 29.94R VSB 1/4 POUGHKEEPSIE CLOUDY 61 58 90 CALM 29.93R ALBANY PTCLDY 55 54 96 N3 29.96R FOG $$ NJZ001-105-106-008-010-013-015-019>022-104-301100- NEW JERSEY CITY SKY/WX TMP DP RH WIND PRES REMARKS NEWARK/LIBERTY CLOUDY 67 61 81 CALM 29.93R TETERBORO CLOUDY 66 59 78 CALM 29.92R CALDWELL CLOUDY 62 58 86 CALM 29.94R MORRISTOWN PTCLDY 61 57 88 CALM 29.94R FOG SOMERVILLE PTCLDY 56 54 93 CALM 29.92R LINDEN FAIR 69 64 84 CALM 29.94S SUSSEX CLOUDY 60 57 89 CALM 29.93F ANDOVER N/A 55 54 96 CALM 29.94S TRENTON MOCLDY 61 58 90 CALM 29.93R MILLVILLE CLOUDY 63 61 93 CALM 29.92R FOG ATLANTIC CITY CLOUDY 60 58 92 CALM 29.93R WRIGHTSTOWN CLOUDY 61 56 83 S2 29.92R TOMS RIVER CLOUDY 61 55 82 CALM 29.93S BELMAR CLOUDY 63 54 72 SW3 29.93S $$ PAZ047>061-062-071-301100- EASTERN PENNSYLVANIA CITY SKY/WX TMP DP RH WIND PRES REMARKS PHILADELPHIA CLOUDY 65 61 87 CALM 29.93R ALLENTOWN FOG 57 55 94 CALM 29.93R VSB 1/4 SCRANTON CLEAR 58 54 86 E6 29.92S FOG $$ CTZ002-004>006-009-010-012-RIZ004-006-007-MAZ004-011-015-301100- SOUTHERN NEW ENGLAND IN CT CITY SKY/WX TMP DP RH WIND PRES REMARKS BRADLEY INTL CLOUDY 60 54 80 N7 29.99R HARTFORD CLOUDY 60 56 86 VRB6 29.98S DANBURY CLOUDY 63 61 93 E8 29.96S FOG WTRBRY/OXFORD CLOUDY 59 54 82 NE9 29.98R BRIDGEPORT CLOUDY 65 62 90 NE9 29.95R MERIDEN CLOUDY 61 57 87 N8 29.97S NEW HAVEN CLOUDY 65 60 84 NE5 29.95F FOG CHESTER CLOUDY 59 57 94 NE7 29.98F GROTON CLOUDY 60 58 92 NE10 29.97S WILLIMANTIC CLOUDY 58 55 90 NE6 29.99F IN RI CITY SKY/WX TMP DP RH WIND PRES REMARKS PROVIDENCE CLOUDY 58 55 90 N13 29.99S BLOCK ISLAND CLOUDY 61 57 88 NE10 29.98R WESTERLY CLOUDY 60 57 89 N7 29.99R IN MA CITY SKY/WX TMP DP RH WIND PRES REMARKS BOSTON CLOUDY 56 54 93 N12 30.01R WORCESTER CLOUDY 52 52 100 NE6 30.01S WESTFIELD CLOUDY 58 55 90 N5 30.01R FOG PROVINCETOWN CLOUDY 61 57 88 N13G20 29.98S NANTUCKET CLOUDY 62 60 93 N7 29.97R $$ ANZ330-335-338-340-345-350-353-355-301100- COASTAL MARINE OBSERVATIONS STATION/POSITION TIME SKY/WX TEMP WIND PRES VSBY WAVE AIR SEA DIR/SP/G HT/PER (UTC) (F) (DEG/KT/KT) (MB) (MI) (FT/S) NY HARB ENTRANCE 1000 71 68 240/ 4/ 6 1013.7 1/ 8 4S FIRE IS 1000 69 N/A 2/ 7 20S FIRE ISLAND 1000 68 68 350/ 8/ 8 1013.2 2/ 8 23SW MTP 1000 N/A 2/ 3 HUDSON CANYON 1000 68 70 30/ 8/ 10 1013.1 2/ 7 EXECUTION ROCKS 1000 69 69 40/ 12/ 17 N/A WESTERN LI SOUND 1000 68 70/ 16/ 19 N/A 0 CENTRAL LI SOUND 0900 63 68 60/ 14/ 16 N/A 2/ 4 EASTERN LI SOUND 0900 62 67 40/ 10/ 14 N/A ROBBINS REEF 1000 67 360/ 2/ 3 1012.1 $$ >>>>>>>>>>>>>>>>>>>>>>>>>>>> KEY <<<<<<<<<<<<<<<<<<<<<<<<<<< > < > SKY/WX - SKY CONDITION/PRESENT WEATHER < > TMP - TEMPERATURE IN FAHRENHEIT < > DP - DEWPOINT IN FAHRENHEIT < > RH - RELATIVE HUMIDITY IN PERCENT < > WIND - DIRECTION AND SPEED IN MPH < > PRES - MEAN SEA LEVEL PRESSURE IN INCHES OF HG < > WCI - WIND CHILL INDEX < > VSB - VISIBILITY IN MILES < > HX - HEAT INDEX < > TC - TEMPERATURE IN CELSIUS < > VRB - VARIABLE WIND DIRECTION < > < >>>>>>>>>>>>>>>>>>>>>>>>>>>> KEY <<<<<<<<<<<<<<<<<<<<<<<<<<<

USA.gov is the U.S. government's official web portal to all federal, state and local government web resources and services.